Weather History for Key West NAF, FL

Change the Weather History Date:

Thursday, March 7, 2013

  Actual Average Record
Temperature  
Mean Temperature 62 °F -  
Max Temperature 64 °F 77 °F 84 °F (2003)
Min Temperature 60 °F 68 °F 3 °F (2012)
Degree Days  
Heating Degree Days 3    
Growing Degree Days 12 (Base 50)    
Moisture  
Dew Point 47 °F    
Average Humidity 60    
Maximum Humidity 72    
Minimum Humidity 48    
Precipitation  
Precipitation 0.00 in - - ()
Sea Level Pressure  
Sea Level Pressure 30.17 in    
Wind  
Wind Speed 13 mph (North)    
Max Wind Speed 18 mph    
Max Gust Speed 25 mph    
Visibility 10 miles    
Events      
Averages and records for this station are not official NWS values.
T = Trace of Precipitation, MM = Missing Value Source: NWS Daily Summary

Daily Weather History Graph

Daily Weather History Graph

Search for Another Location

Airport:

Trip Planner

Search our weather history database for the weather conditions in past years. The results will help you decide how hot, cold, wet, or windy it might be!

Date:

Astronomy

Mar. 07, 2013 Rise Set
Actual Time 6:43 AM EST 6:32 PM EST
Civil Twilight 6:20 AM EST 6:55 PM EST
Nautical Twilight 5:54 AM EST 7:21 PM EST
Astronomical Twilight 5:27 AM EST 7:47 PM EST
Moon 3:19 AM EST (3/7) 2:39 PM EST (3/7)
Length of Visible Light 12h 34m
Length of Day
11h 48m
Waning Crescent, 20% of the Moon is Illuminated
Mar 7
Waning Crescent
Mar 11
New
Mar 19
First Quarter
Mar 27
Full
Apr 3
Last Quarter

Hourly Weather History & Observations

Time (EST) Temp. Dew Point Humidity Pressure Visibility Wind Dir Wind Speed Gust Speed Precip Events Conditions
12:53 AM 63.0 °F 48.9 °F 60% 30.13 in 10.0 mi NNW 16.1 mph - N/A   Clear
1:53 AM 63.0 °F 48.9 °F 60% 30.12 in 10.0 mi NNW 18.4 mph 25.3 mph N/A   Scattered Clouds
2:53 AM 62.1 °F 50.0 °F 65% 30.11 in 10.0 mi NNW 12.7 mph 23.0 mph N/A   Mostly Cloudy
3:53 AM 62.1 °F 48.9 °F 62% 30.10 in 10.0 mi NNW 16.1 mph - N/A   Mostly Cloudy
4:53 AM 62.1 °F 48.9 °F 62% 30.11 in 10.0 mi North 15.0 mph 21.9 mph N/A   Scattered Clouds
5:53 AM 61.0 °F 51.1 °F 70% 30.13 in 10.0 mi North 15.0 mph - N/A   Overcast
5:55 AM 60.8 °F 51.8 °F 72% 30.13 in 10.0 mi North 11.5 mph - N/A   Mostly Cloudy
6:53 AM 60.1 °F 48.0 °F 64% 30.16 in 10.0 mi NNE 11.5 mph 18.4 mph N/A   Mostly Cloudy
7:53 AM 60.1 °F 48.0 °F 64% 30.17 in 10.0 mi NNE 13.8 mph - N/A   Mostly Cloudy
8:53 AM 61.0 °F 45.0 °F 56% 30.19 in 10.0 mi NNE 10.4 mph 18.4 mph N/A   Scattered Clouds
9:53 AM 62.1 °F 44.1 °F 52% 30.21 in 10.0 mi NNE 11.5 mph 18.4 mph N/A   Partly Cloudy
10:53 AM 63.0 °F 45.0 °F 52% 30.22 in 10.0 mi NNE 10.4 mph - N/A   Clear
11:53 AM 64.0 °F 44.1 °F 48% 30.22 in 10.0 mi North 11.5 mph - N/A   Clear
12:53 PM 63.0 °F 44.1 °F 50% 30.19 in 10.0 mi NNE 11.5 mph - N/A   Clear
1:53 PM 64.0 °F 45.0 °F 50% 30.18 in 10.0 mi North 6.9 mph - N/A   Clear
2:53 PM 64.0 °F 44.1 °F 48% 30.18 in 10.0 mi NW 12.7 mph 18.4 mph N/A   Clear
3:53 PM 64.0 °F 45.0 °F 50% 30.17 in 10.0 mi North 9.2 mph - N/A   Clear
4:53 PM 63.0 °F 46.0 °F 54% 30.17 in 10.0 mi North 13.8 mph - N/A   Clear
5:53 PM 61.0 °F 46.9 °F 60% 30.17 in 10.0 mi NNW 11.5 mph - N/A   Clear
6:53 PM 60.1 °F 46.9 °F 62% 30.17 in 10.0 mi North 10.4 mph - N/A   Clear
7:53 PM 60.1 °F 46.9 °F 62% 30.19 in 10.0 mi NNW 10.4 mph - N/A   Clear
8:53 PM 60.1 °F 48.9 °F 67% 30.19 in 10.0 mi North 10.4 mph - N/A   Clear
9:53 PM 60.1 °F 48.9 °F 67% 30.19 in 10.0 mi North 9.2 mph - N/A   Clear
10:53 PM 61.0 °F 50.0 °F 67% 30.19 in 10.0 mi North 10.4 mph - N/A   Clear
11:53 PM 61.0 °F 50.0 °F 67% 30.18 in 10.0 mi NNE 8.1 mph - N/A   Clear